SCP
0 0 0 0 0 0 0 0 0 0 0 0 0 0 0 1 1 1 1 -0 -0 -1
0 0 0 0 0 0 0 0 0 0 0 0 0 0 1 0 1 1 1 1 1 1
0 0 0 0 0 0 0 0 0 0 0 0 0 0 0 0 0 0 0 0 1 2
0 0 0 0 0 0 0 0 0 0 0 0 0 0 0 0 0 0 0 0 0 0
0 0 0 0 0 0 0 0 0 0 0 0 0 0 0 0 0 0 0 0 0 0
0 0 0 0 0 0 0 0 0 0 0 0 0 0 0 0 0 0 0 0 0 0
0 0 0 0 0 0 0 0 0 0 0 0 0 0 0 0 0 0 0 0 0 0
0 0 0 0 0 0 0 0 0 0 0 0 0 0 0 0 0 0 0 0 0 0
0 0 0 0 0 0 0 0 0 0 0 0 0 0 0 0 0 0 0 0 0 0
0 0 0 0 0 0 0 0 0 0 0 0 0 0 0 0 0 0 0 0 0 0
0 0 0 0 0 0 0 0 0 0 0 0 0 0 0 0 0 0 0 0 0 0
0 0 0 0 0 0 0 0 0 0 0 0 0 0 0 0 0 0 0 0 0 0
0 0 0 0 0 0 0 0 0 0 0 0 0 0 0 0 0 0 0 0 0 0
0 0 0 0 0 0 0 0 0 0 0 0 0 0 0 0 0 0 0 0 0 0
Wind_Speed_500mb
39 37 37 37 39 44 46 46 52 58 57 52 51 52 55 59 70 85 68 82 71 65
34 33 27 22 24 29 38 41 38 36 39 45 49 51 51 52 52 56 66 69 68 67
31 28 21 24 21 22 27 32 32 30 30 31 36 40 41 42 42 44 48 49 54 61
38 29 30 36 31 26 24 27 26 23 22 18 11 17 22 23 25 32 37 40 45 49
52 44 46 47 43 37 32 31 27 25 23 18 14 12 10 14 18 23 26 28 35 40
64 62 61 62 58 52 47 43 42 42 38 33 28 25 24 25 27 29 28 29 31 31
58 71 72 69 71 71 61 57 52 52 52 49 44 40 36 37 38 40 38 36 37 36
29 47 59 67 72 77 81 73 64 63 60 58 56 52 48 46 46 45 45 46 50 48
32 36 39 47 63 75 81 85 81 77 72 67 65 63 57 53 53 51 52 52 55 60
42 45 46 45 49 55 65 78 85 83 81 83 76 70 62 58 58 57 58 61 63 67
54 57 54 56 57 62 62 65 66 70 69 68 70 69 66 64 63 64 67 71 73 74
74 71 70 67 65 68 68 75 76 75 74 75 78 74 74 70 69 72 75 75 79 79
93 90 87 83 78 70 67 77 80 85 86 87 89 83 80 76 76 80 80 80 80 81
95 97 96 94 94 90 83 77 74 75 80 84 90 92 88 85 84 83 84 83 83 81
Wind_Direction_500mb
223 231 239 245 252 256 260 258 254 252 251 251 251 251 254 249 250 259 265 273 275 285
214 228 224 242 267 263 259 259 259 252 249 250 251 253 255 255 254 247 252 258 269 273
233 218 227 241 252 272 264 256 256 252 245 245 249 252 257 265 265 261 260 265 265 264
213 220 227 235 241 247 247 248 247 244 239 235 234 240 245 258 273 276 274 270 268 270
230 231 233 235 240 241 241 235 241 237 233 233 240 248 259 285 312 313 303 301 286 277
248 243 244 245 243 242 242 241 242 243 240 245 254 262 272 288 297 306 312 307 310 304
258 252 249 247 245 247 245 243 244 247 248 248 252 257 268 279 286 295 304 304 298 306
273 254 249 248 247 246 249 248 245 246 250 252 253 255 261 270 277 284 293 300 304 306
260 260 252 252 249 247 249 251 250 248 248 249 252 253 259 267 271 276 281 289 297 304
258 262 259 253 251 250 250 251 251 252 253 256 252 251 258 267 271 277 282 284 288 295
278 276 273 265 257 251 250 254 254 253 251 250 250 253 254 259 263 271 280 287 293 294
280 276 274 272 269 261 257 253 252 253 252 254 254 250 251 254 263 272 280 287 292 294
282 279 275 272 269 267 263 257 252 251 255 257 253 247 248 256 265 274 282 290 292 289
279 276 275 274 272 270 264 260 257 253 250 246 243 246 252 257 264 274 283 287 288 286
Wind_Speed_850mb
39 37 37 37 39 44 46 46 52 58 57 52 51 52 55 59 70 85 68 82 71 65
34 33 27 22 24 29 38 41 38 36 39 45 49 51 51 52 52 56 66 69 68 67
31 28 21 24 21 22 27 32 32 30 30 31 36 40 41 42 42 44 48 49 54 61
38 29 30 36 31 26 24 27 26 23 22 18 11 17 22 23 25 32 37 40 45 49
52 44 46 47 43 37 32 31 27 25 23 18 14 12 10 14 18 23 26 28 35 40
64 62 61 62 58 52 47 43 42 42 38 33 28 25 24 25 27 29 28 29 31 31
58 71 72 69 71 71 61 57 52 52 52 49 44 40 36 37 38 40 38 36 37 36
29 47 59 67 72 77 81 73 64 63 60 58 56 52 48 46 46 45 45 46 50 48
32 36 39 47 63 75 81 85 81 77 72 67 65 63 57 53 53 51 52 52 55 60
42 45 46 45 49 55 65 78 85 83 81 83 76 70 62 58 58 57 58 61 63 67
54 57 54 56 57 62 62 65 66 70 69 68 70 69 66 64 63 64 67 71 73 74
74 71 70 67 65 68 68 75 76 75 74 75 78 74 74 70 69 72 75 75 79 79
93 90 87 83 78 70 67 77 80 85 86 87 89 83 80 76 76 80 80 80 80 81
95 97 96 94 94 90 83 77 74 75 80 84 90 92 88 85 84 83 84 83 83 81
Wind_Direction_850mb
223 231 239 245 252 256 260 258 254 252 251 251 251 251 254 249 250 259 265 273 275 285
214 228 224 242 267 263 259 259 259 252 249 250 251 253 255 255 254 247 252 258 269 273
233 218 227 241 252 272 264 256 256 252 245 245 249 252 257 265 265 261 260 265 265 264
213 220 227 235 241 247 247 248 247 244 239 235 234 240 245 258 273 276 274 270 268 270
230 231 233 235 240 241 241 235 241 237 233 233 240 248 259 285 312 313 303 301 286 277
248 243 244 245 243 242 242 241 242 243 240 245 254 262 272 288 297 306 312 307 310 304
258 252 249 247 245 247 245 243 244 247 248 248 252 257 268 279 286 295 304 304 298 306
273 254 249 248 247 246 249 248 245 246 250 252 253 255 261 270 277 284 293 300 304 306
260 260 252 252 249 247 249 251 250 248 248 249 252 253 259 267 271 276 281 289 297 304
258 262 259 253 251 250 250 251 251 252 253 256 252 251 258 267 271 277 282 284 288 295
278 276 273 265 257 251 250 254 254 253 251 250 250 253 254 259 263 271 280 287 293 294
280 276 274 272 269 261 257 253 252 253 252 254 254 250 251 254 263 272 280 287 292 294
282 279 275 272 269 267 263 257 252 251 255 257 253 247 248 256 265 274 282 290 292 289
279 276 275 274 272 270 264 260 257 253 250 246 243 246 252 257 264 274 283 287 288 286